NY5V Weather Reports


time (UTC)temp
C
wind
direction
speed
KPH
gust
KPH
rain 1hr
cm
rain 24hr
cm
rain mn
cm
humidity
%
barometer
mb
20260506165434 13 102 3.2 3.2 0.00 0.00 0.00 93 1014.4
20260506164432 13 67 3.2 4.8 0.00 0.00 0.00 93 1015.1
20260506163431 13 100 3.2 3.2 0.00 0.00 0.00 93 1015.3
20260506162430 13 80 3.2 3.2 0.00 0.00 0.00 92 1014.9
20260506161425 14 72 3.2 3.2 0.00 0.00 0.00 91 1014.8
20260506160425 14 98 3.2 4.8 0.00 0.00 0.00 91 1014.2
20260506155420 14 90 3.2 3.2 0.00 0.00 0.00 91 1014.0
20260506153542 14 97 3.2 4.8 0.00 0.00 0.00 91 1013.3
20260506152542 14 72 1.6 3.2 0.00 0.00 0.00 91 1013.0
20260506151538 15 70 1.6 1.6 0.00 0.00 0.00 91 1012.6
20260506150537 15 87 3.2 3.2 0.00 0.00 0.00 90 1013.1
20260506145536 15 94 1.6 3.2 0.00 0.00 0.00 91 1013.1
20260506144536 15 89 3.2 4.8 0.00 0.00 0.00 90 1012.9
20260506143531 15 107 4.8 4.8 0.00 0.00 0.00 91 1012.4
20260506142526 14 113 6.4 6.4 0.00 0.00 0.00 91 1012.3
20260506141522 15 86 3.2 3.2 0.00 0.00 0.00 91 1012.2
20260506140517 14 110 4.8 6.4 0.00 0.00 0.00 92 1012.4
20260506135517 14 82 1.6 3.2 0.00 0.00 0.00 92 1012.0
20260506134515 15 77 6.4 9.7 0.00 0.00 0.00 92 1011.8
20260506133515 15 114 6.4 6.4 0.00 0.00 0.00 93 1011.8
20260506132514 15 74 4.8 4.8 0.00 0.00 0.00 93 1011.9
20260506131515 15 98 3.2 4.8 0.00 0.00 0.00 93 1012.0
20260506130514 15 108 3.2 4.8 0.00 0.00 0.00 93 1011.6
20260506125509 15 144 4.8 4.8 0.00 0.00 0.00 93 1011.5
20260506124504 16 88 3.2 4.8 0.00 0.00 0.00 94 1011.3
20260506123500 16 69 1.6 3.2 0.00 0.00 0.00 93 1011.2
20260506122500 16 105 3.2 4.8 0.00 0.00 0.00 93 1010.9
20260506121455 16 77 3.2 3.2 0.00 0.00 0.00 92 1010.9
20260506120455 17 67 1.6 3.2 0.00 0.00 0.00 93 1010.5
20260506115450 17 62 1.6 1.6 0.00 0.00 0.00 92 1010.4
20260506114446 17 56 0.0 1.6 0.00 0.00 0.00 91 1010.3
20260506113442 18 69 1.6 3.2 0.00 0.00 0.00 88 1010.0
20260506112441 18 69 1.6 3.2 0.00 0.00 0.00 88 1010.2
20260506111436 19 79 3.2 4.8 0.00 0.00 0.00 86 1009.7
20260506110431 20 58 1.6 1.6 0.00 0.00 0.00 86 1009.6
20260506105430 20 64 1.6 1.6 0.00 0.00 0.00 86 1009.5
20260506104425 20 51 0.0 0.0 0.00 0.00 0.00 86 1009.4
20260506103420 20 50 0.0 0.0 0.00 0.00 0.00 86 1009.3
20260506102415 20 62 1.6 1.6 0.00 0.00 0.00 86 1009.0
20260506101414 21 63 3.2 3.2 0.00 0.00 0.00 84 1009.1
20260506100410 23 44 0.0 0.0 0.00 0.00 0.00 92 1008.8
20260506095406 23 45 0.0 0.0 0.00 0.00 0.00 93 1008.7
20260506094400 23 343 4.8 6.4 0.00 0.00 0.00 93 1008.5
20260506093355 23 31 1.6 3.2 0.00 0.00 0.00 92 1008.6
20260506092351 23 23 1.6 4.8 0.00 0.00 0.00 93 1008.8
20260506091345 23 13 6.4 9.7 0.00 0.00 0.00 93 1008.5
20260506090345 23 32 1.6 1.6 0.00 0.00 0.00 93 1008.5
20260506085344 23 38 3.2 4.8 0.00 0.00 0.00 93 1008.6
20260506084343 23 40 0.0 0.0 0.00 0.00 0.00 93 1008.5
20260506083343 23 35 1.6 3.2 0.00 0.00 0.00 93 1008.4
20260506082343 23 47 1.6 1.6 0.00 0.00 0.00 93 1008.2
20260506081343 23 17 1.6 4.8 0.00 0.00 0.00 93 1008.5
20260506080343 23 46 1.6 3.2 0.00 0.00 0.00 93 1008.3
20260506073333 23 28 1.6 1.6 0.00 0.00 0.00 93 1008.4
20260506072333 23 35 1.6 1.6 0.00 0.00 0.00 92 1008.9
20260506071329 23 44 0.0 0.0 0.00 0.00 0.00 91 1008.4
20260506070328 23 48 0.0 0.0 0.00 0.00 0.00 91 1008.6
20260506062311 23 46 1.6 1.6 0.00 0.00 0.00 90 1008.6
20260506061310 23 45 0.0 1.6 0.00 0.00 0.00 90 1008.3
20260506060306 24 42 0.0 0.0 0.00 0.00 0.00 90 1008.6
20260506051255 24 328 3.2 4.8 0.00 0.00 0.00 88 1008.5
20260506050250 24 46 3.2 4.8 0.00 0.00 0.00 88 1008.2
20260506044250 25 35 4.8 6.4 0.00 0.00 0.00 88 1008.3
20260506043244 25 32 3.2 3.2 0.00 0.00 0.00 87 1008.3
20260506042241 25 45 0.0 1.6 0.00 0.00 0.00 87 1008.4
20260506041241 25 16 4.8 6.4 0.00 0.00 0.00 87 1007.9
20260506040236 25 17 0.0 1.6 0.00 0.00 0.00 87 1007.6
20260506035235 25 4 3.2 3.2 0.00 0.00 0.00 87 1007.6
20260506034235 25 357 4.8 6.4 0.00 0.00 0.00 86 1007.2
20260506033230 25 34 3.2 4.8 0.00 0.00 0.00 86 1007.4
20260506032229 25 27 0.0 0.0 0.00 0.00 0.00 86 1007.1
20260506031229 25 29 1.6 1.6 0.00 0.00 0.00 86 1007.2
20260506030224 25 42 0.0 0.0 0.00 0.00 0.00 86 1007.0
20260506025223 25 44 0.0 1.6 0.00 0.00 0.00 85 1007.0
20260506024223 25 37 0.0 0.0 0.00 0.00 0.00 85 1007.0
20260506023222 25 338 4.8 4.8 0.00 0.00 0.00 85 1006.7
20260506022217 25 44 0.0 0.0 0.00 0.00 0.00 85 1006.5
20260506021217 25 44 0.0 0.0 0.00 0.00 0.00 84 1006.9
20260506020212 26 42 0.0 0.0 0.00 0.00 0.00 84 1006.8
20260506015213 26 43 0.0 0.0 0.00 0.00 0.00 83 1006.5
20260506014211 26 34 1.6 1.6 0.00 0.00 0.00 83 1006.5
20260506013206 26 42 0.0 0.0 0.00 0.00 0.00 82 1006.5
20260506012205 26 44 0.0 0.0 0.00 0.00 0.00 82 1006.4
20260506011204 26 45 0.0 1.6 0.00 0.00 0.00 81 1006.3
20260506010159 26 37 1.6 1.6 0.00 0.00 0.00 81 1006.1
20260506005159 27 33 0.0 0.0 0.00 0.00 0.00 80 1006.2
20260506004159 27 43 1.6 1.6 0.00 0.00 0.00 79 1005.4
20260506003156 27 347 1.6 3.2 0.00 0.00 0.00 79 1005.7
20260506002154 27 36 1.6 1.6 0.00 0.00 0.00 78 1005.5
20260506001154 27 40 0.0 1.6 0.00 0.00 0.00 77 1005.7
20260506000148 27 26 1.6 1.6 0.00 0.00 0.00 77 1005.5
20260505235149 27 256 9.7 14.5 0.00 0.00 0.00 76 1005.5
20260505234148 27 43 1.6 3.2 0.00 0.00 0.00 76 1005.3
20260505233148 27 40 1.6 1.6 0.00 0.00 0.00 76 1005.4
20260505232143 28 52 3.2 4.8 0.00 0.00 0.00 75 1005.4
20260505231139 28 44 3.2 3.2 0.00 0.00 0.00 75 1005.4
20260505230138 28 305 6.4 6.4 0.00 0.00 0.00 74 1005.3
20260505225137 28 40 1.6 1.6 0.00 0.00 0.00 74 1005.0
20260505224137 28 38 1.6 3.2 0.00 0.00 0.00 74 1005.1
20260505223136 28 49 0.0 1.6 0.00 0.00 0.00 75 1005.1
20260505222134 28 315 4.8 6.4 0.00 0.00 0.00 73 1004.8
20260505221134 28 6 1.6 4.8 0.00 0.00 0.00 74 1004.8
20260505220129 28 45 3.2 4.8 0.00 0.00 0.00 73 1005.2
20260505215125 27 270 4.8 6.4 0.00 0.00 0.00 74 1005.4
20260505214119 28 303 9.7 14.5 0.00 0.00 0.00 75 1005.5
20260505213118 27 33 3.2 4.8 0.00 0.00 0.00 76 1005.8
20260505212118 28 37 4.8 9.7 0.00 0.00 0.00 75 1006.1
20260505211118 27 41 6.4 11.3 0.00 0.00 0.00 75 1006.0
20260505210117 28 347 4.8 6.4 0.00 0.00 0.00 75 1006.3
20260505205113 27 31 3.2 6.4 0.00 0.00 0.00 77 1006.2
20260505204107 27 2 6.4 6.4 0.00 0.00 0.00 77 1006.2
20260505203107 27 357 1.6 3.2 0.00 0.00 0.00 76 1006.1
20260505202104 27 6 3.2 4.8 0.00 0.00 0.00 76 1006.3
20260505201059 27 31 6.4 6.4 0.00 0.00 0.00 76 1006.3
20260505200059 27 358 11.3 14.5 0.00 0.00 0.00 77 1006.3
20260505195059 27 356 8.0 14.5 0.00 0.00 0.00 77 1006.6
20260505194057 27 297 14.5 16.1 0.00 0.00 0.00 76 1006.9
20260505193058 26 43 12.9 22.5 0.00 0.00 0.00 77 1006.7
20260505192053 26 347 3.2 4.8 0.00 0.00 0.00 78 1006.7
20260505191049 26 237 6.4 9.7 0.00 0.00 0.00 79 1006.7
20260505190046 26 53 4.8 9.7 0.00 0.00 0.00 79 1006.7
20260505185045 26 35 9.7 20.9 0.00 0.00 0.00 79 1006.9
20260505184044 26 37 8.0 11.3 0.00 0.00 0.00 79 1007.1
20260505183045 26 25 4.8 12.9 0.00 0.00 0.00 80 1006.9
20260505182043 26 324 8.0 11.3 0.00 0.00 0.00 79 1007.1
20260505181044 25 29 3.2 3.2 0.00 0.00 0.00 79 1007.0
20260505180043 25 45 6.4 9.7 0.00 0.00 0.00 80 1007.0
20260505175040 25 39 6.4 9.7 0.00 0.00 0.00 81 1007.4
20260505174039 25 42 3.2 3.2 0.00 0.00 0.00 81 1007.3
20260505173039 25 302 6.4 9.7 0.00 0.00 0.00 80 1007.2
20260505172038 25 339 6.4 11.3 0.00 0.00 0.00 81 1007.4
20260505171036 25 14 8.0 11.3 0.00 0.00 0.00 82 1007.6
20260505170035 25 17 6.4 9.7 0.00 0.00 0.00 82 1007.3